User: anonymous   Login
Location: Heidgraben
(53.7081°N, 9.6576°E)
Time: 07:41:22
(UTC+00:00)
Language:

ATLAS 5 CENTAUR R/B - Orbit

View from above orbital plane
View from above orbital plane
View from above satellite
View from above satellite

Ground track
Ground track

The orbit data is extracted from the following two-line orbital elements,

1 31702U 07027B   20263.07644682 0.00000000  00000-0  00000-0 0    02
2 31702  63.3643 351.1205 0410547  16.7021 343.2979 14.18801685    04
Epoch (UTC): 19 September 2020 01:50:05
Eccentricity: 0.0410547
inclination: 63.3643°
perigee height: 533 km
apogee height: 1125 km
right ascension of ascending node: 351.1205°
argument of perigee: 16.7021°
revolutions per day: 14.18801685
mean anomaly at epoch: 343.2979°
orbit number at epoch: 0

The dashed part of the orbit path shows where the satellite is in the earth's shadow,  

DLR